Location: Middlebury
(44.0133°N, 73.1813°W)
Time: 23:49:55
(UTC-05:00)

ISS - Pass Details

Date: 25 January 2020
Orbit: 415 x 423 km, 51.6° (Epoch: 28 February)

Event Time Altitude Azimuth Distance (km) Brightness Sun altitude
Rises 17:43:53 0° 249° (WSW) 2,373 2.5 -9.3°
Reaches altitude 10° 17:46:00 10° 254° (WSW) 1,510 0.7 -9.7°
Maximum altitude 17:49:21 56° 333° (NNW) 512 -3.3 -10.3°
Enters shadow 17:52:04 15° 50° (NE) 1,263 -1.9 -10.8°
